User: anonymous
Location: Unspecified
(0.0000°N, 0.0000°E)
Time: 05:00:56
(UTC+00:00)
Language:

Transit 2A - Orbit

View from above orbital plane
View from above orbital plane
View from above satellite
View from above satellite

Ground track
Ground track

The orbit data is extracted from the following two-line orbital elements,

1 00045U 60007A   14209.77887213  .00000005  00000-0  28442-4 0  1969
2 00045 066.6953 286.9528 0249858 080.3753 054.9483 14.33019053814452
Epoch (UTC): 28 July 2014 18:41:34
Eccentricity: 0.0249858
inclination: 66.6953°
perigee height: 603 km
apogee height: 960 km
right ascension of ascending node: 286.9528°
argument of perigee: 80.3753°
revolutions per day: 14.33019053
mean anomaly at epoch: 54.9483°
orbit number at epoch: 81445

The dashed part of the orbit path shows where the satellite is in the earth's shadow,  

DLR